If you wish to contribute or participate in the discussions about articles you are invited to join SKYbrary as a registered user

 Actions

Osaka International Airport

From SKYbrary Wiki

RJOO
Airport
ICAO: RJOO – IATA: ITM
Summary
Name Osaka International Airport
Region Asia and Pacific
Territory Japan JP.gif
Location Itami, Hyogo Prefecture
Serving Itami, Ikeda and Toyonaka
Elevation 11.887 m
39 ft11.887 m
Coordinates 34° 47' 2.44" N, 135° 26' 23.06" E
Runways
Designator Length Width Surface ROPS
14L/32R 1828 m5,997.375 ft
46 m150.919 ft
ASP yes/yes
14R/32L 2999 m9,839.239 ft
61 m200.131 ft
CON yes/yes


METAR
Observation RJOO 132200Z 32002KT 9999 FEW020 BKN/// 29/26 Q1010 RMK 1CU020 A2983
Station Osaka International Airport
Date/Time 13 August 2020 22:00:00
Wind direction 320°
Wind speed 02 kts
Lowest cloud amount few clouds
Temperature 29°C
Dew point 26°C
Humidity 83%
QNH 1010 hPa
Weather condition n/a

Osaka International Airport is the primary domestic airport for the Kansai region of Japan, including the major cities of Osaka, Kyoto, and Kobe.

Climatology

Humid subtropical climate (Köppen climate classification Cfa).

Maps

Terrain

Loading map...

Airport Layout

Loading map...


Accidents & Serious Incidents at or in vicinity of RJOO

None on SKYbrary